Location: *
(49.0044°N, 9.5056°E)
Time: 06:55:44
(UTC+00:00)

USA 234 - Pass Details

Date: 22 September 2019
Orbit: 1103 x 1105 km, 123.0° (Epoch: 06 October)

Event Time Altitude Azimuth Distance (km) Brightness Sun altitude
Exits shadow 19:02:36 - 61° (ENE) 3,130 5.3 -17.2°
Reaches altitude 10° 19:03:02 10° 60° (ENE) 2,967 5.2 -17.2°
Maximum altitude 19:09:16 49° 348° (NNW) 1,394 4.0 -18.2°
Drops below altitude 10° 19:15:31 10° 276° (W) 2,964 6.6 -19.1°
Sets 19:18:04 0° 271° (W) 3,921 7.4 -19.5°
